Printer-friendly version

IAU Minor Planet Center

Minor Planet Center

MPEC 2006-J27 : 2006 JM6

The following Minor Planet Electronic Circular may be linked-to from your own Web pages, but must not otherwise be redistributed electronically.


Read MPEC 2006-J26 Read MPEC 2006-J28


M.P.E.C. 2006-J27                                Issued 2006 May 6, 10:14 UT

     The Minor Planet Electronic Circulars contain information on unusual
         minor planets and routine data on comets.  They are published
   on behalf of Commission 20 of the International Astronomical Union by the
          Minor Planet Center, Smithsonian Astrophysical Observatory,
                          Cambridge, MA 02138, U.S.A.

                  Supported in part by the Brinson Foundation
                  Supported in part by the TABASGO Foundation
             Prepared using the Tamkin Foundation Computer Network

                              MPC@CFA.HARVARD.EDU
          URL http://cfa-www.harvard.edu/iau/mpc.html  ISSN 1523-6714

                                   2006 JM6

Observations:
     K06J06M* C2006 05 05.15508 11 07 40.94 +09 14 54.6          19.7 V EJ027G96
     K06J06M  C2006 05 05.16066 11 07 40.83 +09 13 54.0          19.9 V EJ027G96
     K06J06M  C2006 05 05.16630 11 07 40.72 +09 12 52.3          19.9 V EJ027G96
     K06J06M  C2006 05 05.17191 11 07 40.62 +09 11 51.7          19.5 V EJ027G96
     K06J06M  C2006 05 05.19942 11 07 40.10 +09 06 51.7          19.5 V EJ027G96
     K06J06M  C2006 05 05.20529 11 07 39.99 +09 05 47.3          19.8 V EJ027G96
     K06J06M  C2006 05 05.20815 11 07 39.94 +09 05 15.9          20.0 V EJ027G96
     K06J06M  C2006 05 05.24118 11 07 39.43 +08 59 13.2          19.9 V EJ027G96
     K06J06M  C2006 05 05.24353 11 07 39.43 +08 58 47.6          19.9 V EJ027G96
     K06J06M  C2006 05 05.24584 11 07 39.39 +08 58 22.2          19.8 V EJ027G96
     K06J06M  C2006 05 05.24810 11 07 39.36 +08 57 57.0          19.6 V EJ027G96
     K06J06M  C2006 05 05.87850 11 08 02.45 +06 58 44.7                 EJ027J95
     K06J06M  C2006 05 05.88337 11 08 02.37 +06 57 47.7                 EJ027J95
     K06J06M  C2006 05 05.88878 11 08 02.36 +06 56 43.7                 EJ027J95
     K06J06M  C2006 05 05.89418 11 08 02.37 +06 55 41.7          19.6 R EJ027J95
     K06J06M  C2006 05 06.15786 11 08 12.95 +06 04 27.0          19.5 R EJ027854
     K06J06M  C2006 05 06.29705 11 08 11.87 +05 36 29.5          19.0 R EJ027651
     K06J06M  C2006 05 06.29917 11 08 11.94 +05 36 04.4          19.2 R EJ027651
     K06J06M  C2006 05 06.30130 11 08 11.85 +05 35 37.9          19.2 R EJ027651

Observer details:
651 Grasslands Observatory, Tucson.  Observer J. E. McGaha.  0.62-m f/5.1
    reflector + CCD.
854 Sabino Canyon Observatory, Tucson.  Observer J. E. McGaha.  0.36-m f/10.0
    Schmidt-Cassegrain + CCD.
G96 Mt. Lemmon Survey.  Observer E. C. Beshore.  Measurers E. C. Beshore,
    E. J. Christensen, G. J. Garradd, A. R. Gibbs, A. D. Grauer, R. E. Hill,
    R. A. Kowalski, S. M. Larson, R. H. McNaught.  1.5-m reflector + CCD.
J95 Great Shefford.  Observer P. Birtwhistle.  0.40-m f/6.0 Schmidt-Cassegrain
    + CCD.

Orbital elements:
2006 JM6                                                 Earth MOID = 0.0319 AU
Epoch 2006 Mar. 6.0 TT = JDT 2453800.5                  MPC
M 336.89078              (2000.0)            P               Q
n   0.33969715     Peri.  187.59529     -0.64077042     +0.76002163
a   2.0342677      Node    42.64170     -0.69568886     -0.51501705
e   0.4895023      Incl.    9.21989     -0.32470030     -0.39638940
P   2.90           H   23.6           G   0.15           U   8
Residuals in seconds of arc
060505 G96  0.6-  0.6+    060505 G96  1.0-  0.3+    060505 J95  0.9-  0.9+
060505 G96  0.5-  0.6+    060505 G96  0.6-  0.6+    060506 854  0.1+  0.0
060505 G96  0.5-  0.2+    060505 G96  0.8-  0.6+    060506 651  0.5-  0.5+
060505 G96  0.4-  0.7+    060505 G96  0.9-  0.3+    060506 651  0.3+  1.2+
060505 G96  0.5-  0.8+    060505 J95  0.1-  1.0+    060506 651  1.2-  0.6+
060505 G96  0.6-  0.6+    060505 J95  1.2-  0.7+
060505 G96  0.6-  0.5+    060505 J95  1.2-  0.2-

Ephemeris:
2006 JM6                 a,e,i = 2.03, 0.49, 9                   q = 1.0384
Date    TT    R. A. (2000) Decl.     Delta      r     Elong.  Phase     V
2006 05 05    11 07.61   +09 43.7    0.0658   1.043   119.8    57.1    19.8
2006 05 15    11 20.82   -35 03.5    0.0488   1.039   123.8    54.0    19.1
2006 05 25    12 41.64   -76 26.5    0.0691   1.048   118.9    57.8    20.0
2006 06 04    19 34.74   -81 11.2    0.107    1.070   118.8    56.2    20.9
2006 06 14    20 49.50   -73 54.6    0.149    1.103   122.8    50.7    21.6
2006 06 24    20 52.28   -68 47.8    0.193    1.147   128.5    43.9    22.0

Timothy B. Spahr             (C) Copyright 2006 MPC           M.P.E.C. 2006-J27

Read MPEC 2006-J26 Read MPEC 2006-J28


Our Web policy. Index to the CBAT/MPC/ICQ pages.


Valid HTML 4.01!